Regional Weather Roundup
Issued by NWS

Home | Current Version | Previous Version | Text Only | Print | Product List | Glossary Off
Versions: 1 2 3 4 5 6 7 8 9 10 11 12 13 14 15 16 17 18 19 20 21 22 23 24 25 26 27 28 29 30 31 32 33 34 35 36 37 38 39 40 41 42 43 44 45 46 47 48 49 50

000
ASUS45 KBOU 212207
RWRCO

WEATHER ROUNDUP FOR COLORADO
NATIONAL WEATHER SERVICE DENVER/BOULDER CO
300 PM MST SUN DEC 21 2014

NOTE: "FAIR" INDICATES FEW OR NO CLOUDS BELOW 12000 FEET WITH NO
SIGNIFICANT WEATHER AND/OR OBSTRUCTIONS TO VISIBILITY.

COZ001>005-013-030-031-212300-
...NORTHWEST COLORADO...

CITY           SKY/WX    TMP DP  RH WIND       PRES   REMARKS
CRAIG          CLOUDY    38  31  76 SW20      29.73S
HAYDEN         CLOUDY    36  28  75 W18G31    29.71F
MEEKER         LGT SNOW  34  31  88 N5        29.81F VSB 3/4 WCI  30
MOUNT WERNER   NOT AVBL
STEAMBOAT SPGS CLOUDY    32  31  94 W10       29.72S WCI  24
WALDEN         CLOUDY    32  27  80 SW13      29.65R WCI  22
$$

COZ006>008-011-212300-
...WEST CENTRAL VALLEYS...

CITY           SKY/WX    TMP DP  RH WIND       PRES   REMARKS
GRAND JUNCTION CLOUDY    34  32  92 CALM      29.93F
MONTROSE       CLOUDY    34  31  88 NW3       29.93F
EAGLE          FLURRIES  36  28  75 CALM      29.83F
RIFLE          CLOUDY    34  30  85 CALM      29.87F
DELTA          CLOUDY    38  34  84 CALM      29.92F
NUCLA          CLOUDY    41  32  70 E5        29.99F
$$

COZ017>023-064>068-212300-
...SOUTHWEST COLORADO...

CITY           SKY/WX    TMP DP  RH WIND       PRES   REMARKS
DURANGO        PTSUNNY   36  28  73 E8        29.94F
CORTEZ         PTSUNNY   43  30  60 NW10      29.98F
PAGOSA SPRINGS CLOUDY    32  25  75 S5        29.95S WCI  27
TELLURIDE      LGT SNOW  31  31  97 W14       29.99S WCI  21
WOLF CREEK PAS FOG       19  19 100 MISG      29.94R VSB 1/4
$$

COZ009-010-012-014-032>034-037-058>063-212300-
...CENTRAL COLORADO...

CITY           SKY/WX    TMP DP  RH WIND       PRES   REMARKS
ASPEN          SNOW      27  25  92 CALM      29.83F VSB 1/2
BUENA VISTA    LGT SNOW  34  25  70 W20G25    29.74F WCI  22
COPPER MTN     CLOUDY    25  19  80 MISG      29.74R
BERTHOUD PASS  HVY SNOW  18  12  79 MISG      29.61S VSB<1/4
COTTONWOOD PAS LGT SNOW  32  25  74 NW21G33   29.73F VSB 3/4 WCI  20
GUNNISON       CLOUDY    28  25  86 N5        29.87F WCI  23
KREMMLING      LGT SNOW  32  28  86 W15G24    29.72F WCI  22
LEADVILLE      SNOW      23  21  92 NW13G22   29.75F VSB 1/2 WCI  11
MONARCH PASS   CLOUDY    19  18  93 MISG      29.91F
SALIDA         CLOUDY    42  23  47 W16G26    29.82F
SUNLIGHT       SNOW     N/A N/A N/A SW3       29.84R VSB 1/4
WILKERSON PASS SNOW      23  21  93 W8G17     29.74F VSB 1/4 WCI  14
$$

COZ069>075-212300-
...SAN LUIS VALLEY/SANGRE DE CRISTO MOUNTAINS...

CITY           SKY/WX    TMP DP  RH WIND       PRES   REMARKS
ALAMOSA        CLOUDY    40  22  48 E7        29.83F
LA VETA PASS   CLOUDY    30  19  64 SW16G32   29.74R WCI  19
SAGUACHE       FLURRIES  36  30  80 NW7       29.83F
$$

COZ035-036-038>040-212300-
...NORTHERN COLORADO FRONT RANGE...

CITY           SKY/WX    TMP DP  RH WIND       PRES   REMARKS
DENVER INTL AP CLOUDY    50  24  36 W12       29.54S
DMNS CITY PARK   N/A     50  23  35 NW10G23   29.55R
AURORA         PTSUNNY   48  25  40 NW25G31   29.56S
FRONT RANGE AP CLOUDY    50  27  40 W14       29.55F
ERIE MUNI ARPT   N/A     50  23  34 W14G24    29.53F
BOULDER MUN AP PTSUNNY   52  25  35 W26G32    29.52F
CENTENNIAL     CLOUDY    46  25  43 SW5       29.56F
BROOMFIELD     PTSUNNY   50  25  37 W20       29.55F
FORT COLLINS   PTSUNNY   54  25  32 W26G35    29.52S
LONGMONT       PTSUNNY   55  27  34 W9        29.53F
$$

COZ041-046-047-076>085-087-088-212300-
...PIKES PEAK/PALMER DIVIDE AND SOUTHERN FOOTHILLS...

CITY           SKY/WX    TMP DP  RH WIND       PRES   REMARKS
COLO. SPRINGS  CLOUDY    50  22  33 NW25G33   29.59F
A. F. ACADEMY  CLOUDY    47  21  36 W13G22    29.60F
ELLICOTT       NOT AVBL
FALCON         CLOUDY    45  21  37 W20       29.61R
FORT CARSON    CLOUDY    50  19  29 VRB2      29.57F
LIMON          PTSUNNY   50  23  34 W13       29.55F
MONUMENT HILL  CLOUDY    41  23  48 W13       29.59S
TRINIDAD       CLOUDY    51  22  31 W6        29.62S
$$

COZ042>045-048>051-090-091-212300-
...NORTHEAST COLORADO...

CITY           SKY/WX    TMP DP  RH WIND       PRES   REMARKS
GREELEY ARPT   PTSUNNY   46  25  42 SE5       29.50F
AKRON          CLOUDY    42  31  64 NW6       29.53F
BURLINGTON     CLOUDY    45  32  60 S7        29.54F
WRAY           CLOUDY    44  32  61 SW6       29.51F
STERLING       CLOUDY    37  34  87 S6        29.51F
HOLYOKE        CLOUDY    41  34  75 SW9       29.51F
FORT MORGAN    CLOUDY    36  29  76 SW5       29.52F
$$

COZ086-089-092>099-212300-
...SOUTHEAST COLORADO...

CITY           SKY/WX    TMP DP  RH WIND       PRES   REMARKS
PUEBLO         CLOUDY    55  21  26 W24       29.55F
LA JUNTA       CLOUDY    47  31  53 CALM      29.56F
LAMAR          CLOUDY    54  27  35 CALM      29.54F
SPRINGFIELD      N/A     53  22  29 SW5       29.59S
$$


USA.gov is the U.S. government's official web portal to all federal, state and local government web resources and services.